Regional Weather Roundup
Issued by NWS

Current Version | Previous Version | Text Only | Print | Product List | Glossary On
Versions: 1 2 3 4 5 6 7 8 9 10 11 12 13 14 15 16 17 18 19 20 21 22 23 24 25 26 27 28 29 30 31 32 33 34 35 36 37 38 39 40 41 42 43 44 45 46 47 48 49 50
000
ASUS44 KMEG 040010
RWRTN
TENNESSEE HOURLY STATE WEATHER ROUNDUP
NATIONAL WEATHER SERVICE MEMPHIS TN
600 PM CST TUE MAR 03 2015

TNZ002-004-019-021-049-052-054-088>092-040100-
WEST TENNESSEE

CITY           SKY/WX    TMP DP  RH WIND       PRES   REMARKS
MEMPHIS INTL   MOCLDY    58  56  93 S10       29.89F
NWS MEMPHIS      N/A     58 N/A N/A MISG        N/A
JACKSON        CLOUDY    60  58  92 S10       29.90S
DYERSBURG      CLOUDY    61  46  59 S5        29.89S
UNION CITY     CLOUDY    57  57 100 S8        29.86S
PARIS          CLOUDY    57  55  94 SW10      29.89R
LEXINGTON      CLOUDY    57  57 100 S7        29.91F
SAVANNAH       CLOUDY    63  63 100 S8        29.93S
$$

TNZ008-025-027-028-033-062-065-066-040100-
NORTH MIDDLE TENNESSEE

CITY           SKY/WX    TMP DP  RH WIND       PRES   REMARKS
NASHVILLE      LGT RAIN  61  59  93 S8        29.93F FOG
CLARKSVILLE    CLOUDY    61  59  93 S13       29.88S
SMYRNA         CLOUDY    60  58  93 S8        29.95F
COOKEVILLE     CLOUDY    61  57  88 SW7       29.96S
CROSSVILLE     LGT RAIN  54  52  93 S5        30.00S FOG
$$

TNZ061-075-076-078-094-096-097-040100-
SOUTH MIDDLE TENNESSEE

CITY           SKY/WX    TMP DP  RH WIND       PRES   REMARKS
FAYETTEVILLE   CLOUDY    55  54  94 S12         N/A  VSB 1/4
TULLAHOMA      CLOUDY    57  57 100 S8        29.98F
WINCHESTER     CLOUDY    57  55  94 SE8       30.00F
MCMINNVILLE    CLOUDY    61  61 100 S7        29.98S
COLUMBIA       CLOUDY   N/A N/A N/A S9        29.92F
SHELBYVILLE    CLOUDY    61  59  94 S10       29.96F
$$

TNZ017-018-042-046-047-040100-
NORTHEAST TENNESSEE

CITY           SKY/WX    TMP DP  RH WIND       PRES   REMARKS
TRI CITIES     LGT RAIN  47  46  97 W6        30.03R
ELIZABETHTON   DRIZZLE   48  46  93 CALM      30.01S
$$

TNZ012-013-036-069-073-074-040100-
CENTRAL EAST TENNESSEE

CITY           SKY/WX    TMP DP  RH WIND       PRES   REMARKS
KNOXVILLE      LGT RAIN  48  47  96 CALM      30.02S FOG
OAK RIDGE      RAIN      50  49  96 CALM      30.04R FOG
GATLINBURG     CLOUDY    48  46  93 CALM      30.03R
MORRISTOWN     PTCLDY    46  46 100 CALM      30.03S
$$

TNZ083-085-099-040100-
SOUTHEAST TENNESSEE

CITY           SKY/WX    TMP DP  RH WIND       PRES   REMARKS
CHATTANOOGA    LGT RAIN  54  52  93 S3        30.05F FOG
$$

SKY/WX REPORTED AS FAIR MEANS FEW OR NO CLOUDS BELOW
12 THOUSAND FEET.



USA.gov is the U.S. government's official web portal to all federal, state and local government web resources and services.